Find Starlink 2039

NORAD ID: 47655 Int'l Des: 2021-012 Owner: SPXS Country: US Constellation: starlink operational
LEOCIRCULAR

当前视图

正在加载3D地球...

About Starlink 2039

Starlink 2039 (NORAD 47655) is a starlink constellation satellite (v1.0) launched Feb 16, 2021 by SPXS of US. It operates in LEO, CIRCULAR orbit with a mass of 260.00 kg.

即将过境

Passes for default location (London). Set your location on the main map for personalized predictions.

高度历史

Loading altitude history...

两行轨道根数

1 47655U 21012AM 26227.71387935 .00022622 00000-0 70539-3 0 9996
2 47655 53.1598 44.9265 0001124 296.5295 63.5591 15.33170980304458
Epoch: Aug 15, 2026 • Age: 17 hours

当前状态

高度 482.3 km
远地点 / 近地点 N/A
速度 7.62 km/s
星下点 -48.97°S, 132.63°W
发射日期 Feb 16, 2021
运行时间 5.4 years
类型 internet

技术详情

分类 Payload
质量 260.00 kg
干质量 248.00 kg
总质量 260.00 kg
长度 0.20 m
直径 2.80 m
跨度 9.00 m
形状 Box + pan
制造商 SPXS
平台类型 Starlink
阶段状态 In Orbit
所有者/国家 SPXS/US

Most Searched